CCA8933 ZYTL-ZJHK

Flight info

Callsign CCA8933
Flight time 3h 47m
Altitude 32100
Route KAR19D KARPI W5 TAO DCT URBAD W172 LATUX W108 MATNU W115 PINOT W13 BEGMO W117 DST B221 LJG A470 BEBEM R200 BIGRO G221 GIVIV W605 DOMGO DOMGO5XA
Aircraft B738/M-SDE2E3FGHIRWXY/LB1

Departure

Time 2026-04-22 03:56
Airport Dalian Zhoushuizi International Airport (ZYTL)

Arrival

Time 2026-04-22 07:43
Airport Haikou Meilan International Airport (ZJHK)
Time Latitude Longitude Altitude Speed Heading
2026-04-22 03:50 38.96285 121.54025 112 ft 0 kts 14°
2026-04-22 03:52 38.96296 121.54028 115 ft 5 kts 13°
2026-04-22 03:52 38.96350 121.54038 113 ft 10 kts 20°
2026-04-22 03:52 38.96361 121.54136 113 ft 15 kts 96°
2026-04-22 03:53 38.96349 121.54287 115 ft 19 kts 95°
2026-04-22 03:53 38.96334 121.54481 115 ft 24 kts 96°
2026-04-22 03:53 38.96317 121.54710 115 ft 28 kts 96°
2026-04-22 03:53 38.96292 121.54940 112 ft 25 kts 109°
2026-04-22 03:54 38.96260 121.55150 115 ft 23 kts 96°
2026-04-22 03:54 38.96245 121.55352 115 ft 22 kts 95°
2026-04-22 03:54 38.96229 121.55549 114 ft 22 kts 96°
2026-04-22 03:54 38.96261 121.55700 114 ft 18 kts 15°
2026-04-22 03:55 38.96381 121.55712 113 ft 17 kts 348°
2026-04-22 03:55 38.96431 121.55515 115 ft 49 kts 275°
2026-04-22 03:55 38.96488 121.54771 113 ft 116 kts 276°
2026-04-22 03:55 38.96595 121.53499 165 ft 165 kts 277°
2026-04-22 03:56 38.96706 121.52042 988 ft 159 kts 276°
2026-04-22 03:56 38.96798 121.50616 1800 ft 166 kts 278°
2026-04-22 03:56 38.96930 121.49104 2432 ft 182 kts 280°
2026-04-22 03:56 38.97093 121.47352 2843 ft 211 kts 277°
2026-04-22 03:57 38.97245 121.45354 3146 ft 236 kts 277°
2026-04-22 03:57 38.97417 121.43247 3686 ft 248 kts 277°
2026-04-22 03:57 38.97603 121.40978 4282 ft 262 kts 277°
2026-04-22 03:57 38.98004 121.38696 5170 ft 255 kts 301°
2026-04-22 03:58 38.99160 121.37094 6251 ft 244 kts 332°
2026-04-22 03:58 39.00788 121.36528 6972 ft 245 kts 358°
2026-04-22 03:58 39.02509 121.36614 7719 ft 250 kts
2026-04-22 03:58 39.04227 121.36997 8527 ft 253 kts 21°
2026-04-22 03:59 39.05678 121.38335 9245 ft 265 kts 49°
2026-04-22 03:59 39.06527 121.40512 9636 ft 287 kts 78°
2026-04-22 03:59 39.06511 121.43144 10140 ft 300 kts 95°
2026-04-22 03:59 39.06272 121.45837 10797 ft 304 kts 95°
2026-04-22 04:00 39.06035 121.48556 11504 ft 307 kts 94°
2026-04-22 04:00 39.05810 121.51308 12187 ft 311 kts 94°
2026-04-22 04:00 39.05266 121.54018 12822 ft 319 kts 117°
2026-04-22 04:00 39.03880 121.56241 13567 ft 322 kts 143°
2026-04-22 04:01 39.01881 121.57501 14164 ft 324 kts 171°
2026-04-22 04:01 38.99646 121.57613 14755 ft 323 kts 188°
2026-04-22 04:01 38.97435 121.57337 15380 ft 324 kts 193°
2026-04-22 04:01 38.95335 121.56373 15850 ft 323 kts 216°
2026-04-22 04:02 38.93418 121.54727 15996 ft 341 kts 220°
2026-04-22 04:02 38.91417 121.52939 16152 ft 360 kts 219°
2026-04-22 04:02 38.89296 121.51082 16276 ft 378 kts 218°
2026-04-22 04:02 38.87060 121.49156 16412 ft 395 kts 218°
2026-04-22 04:03 38.84722 121.47169 16528 ft 410 kts 217°
2026-04-22 04:03 38.82314 121.45136 16910 ft 417 kts 217°
2026-04-22 04:03 38.79887 121.43093 17516 ft 418 kts 218°
2026-04-22 04:03 38.77455 121.41045 18116 ft 419 kts 218°
2026-04-22 04:04 38.75013 121.38986 18608 ft 421 kts 218°
2026-04-22 04:04 38.72564 121.36918 19096 ft 422 kts 218°
2026-04-22 04:04 38.70111 121.34849 19615 ft 422 kts 219°
2026-04-22 04:04 38.67663 121.32786 20130 ft 422 kts 219°
2026-04-22 04:05 38.65204 121.30712 20614 ft 423 kts 219°
2026-04-22 04:05 38.62746 121.28635 21079 ft 424 kts 219°
2026-04-22 04:05 38.60281 121.26552 21528 ft 425 kts 219°
2026-04-22 04:05 38.57811 121.24467 21951 ft 426 kts 219°
2026-04-22 04:06 38.55339 121.22362 22368 ft 426 kts 222°
2026-04-22 04:06 38.53205 121.19815 22740 ft 416 kts 237°
2026-04-22 04:06 38.51503 121.16848 23169 ft 414 kts 239°
2026-04-22 04:06 38.49807 121.13866 23567 ft 415 kts 239°
2026-04-22 04:07 38.48117 121.10927 23873 ft 417 kts 238°
2026-04-22 04:07 38.46391 121.07953 24193 ft 418 kts 238°
2026-04-22 04:07 38.44653 121.04982 24518 ft 418 kts 238°
2026-04-22 04:07 38.42909 121.02012 24836 ft 419 kts 238°
2026-04-22 04:08 38.41160 120.99039 25139 ft 419 kts 238°
2026-04-22 04:08 38.39402 120.96057 25432 ft 420 kts 238°
2026-04-22 04:08 38.37647 120.93079 25719 ft 421 kts 238°
2026-04-22 04:08 38.35885 120.90095 26000 ft 422 kts 238°
2026-04-22 04:09 38.34121 120.87107 26279 ft 422 kts 238°
2026-04-22 04:09 38.32353 120.84116 26613 ft 421 kts 238°
2026-04-22 04:09 38.30601 120.81155 27058 ft 417 kts 238°
2026-04-22 04:09 38.28860 120.78215 27557 ft 413 kts 238°
2026-04-22 04:10 38.27136 120.75309 28028 ft 410 kts 239°
2026-04-22 04:10 38.25287 120.72542 28406 ft 415 kts 230°
2026-04-22 04:10 38.23791 120.70989 28634 ft 424 kts 222°
2026-04-22 04:10 38.21191 120.69139 29035 ft 431 kts 215°
2026-04-22 04:11 38.18491 120.67503 29467 ft 430 kts 214°
2026-04-22 04:11 38.15792 120.65896 29842 ft 428 kts 214°
2026-04-22 04:11 38.13106 120.64276 30209 ft 426 kts 215°
2026-04-22 04:11 38.10446 120.62641 30530 ft 424 kts 216°
2026-04-22 04:12 38.07804 120.61000 30821 ft 423 kts 216°
2026-04-22 04:12 38.05165 120.59360 31120 ft 422 kts 215°
2026-04-22 04:12 38.02393 120.57994 31385 ft 433 kts 207°
2026-04-22 04:12 37.99441 120.57071 31659 ft 442 kts 201°
2026-04-22 04:13 37.96337 120.56664 31945 ft 452 kts 195°
2026-04-22 04:13 37.93194 120.56450 32166 ft 453 kts 194°
2026-04-22 04:13 37.86862 120.56060 32150 ft 455 kts 194°
2026-04-22 04:14 37.80561 120.55627 32145 ft 452 kts 195°
2026-04-22 04:14 37.74303 120.55160 32146 ft 450 kts 195°
2026-04-22 04:15 37.68062 120.54691 32143 ft 449 kts 195°
2026-04-22 04:15 37.61858 120.54070 32148 ft 444 kts 198°
2026-04-22 04:16 37.52694 120.52634 32153 ft 445 kts 199°
2026-04-22 04:17 37.46531 120.51668 32156 ft 448 kts 198°
2026-04-22 04:17 37.40331 120.50731 32141 ft 449 kts 198°
2026-04-22 04:18 37.34119 120.49808 32146 ft 450 kts 198°
2026-04-22 04:18 37.27899 120.48886 32135 ft 450 kts 198°
2026-04-22 04:19 37.21692 120.47967 32142 ft 448 kts 198°
2026-04-22 04:19 37.15499 120.47050 32148 ft 448 kts 198°
2026-04-22 04:20 37.09316 120.46135 32147 ft 447 kts 198°
2026-04-22 04:20 37.03133 120.45222 32144 ft 447 kts 197°
2026-04-22 04:21 36.96958 120.44311 32145 ft 446 kts 197°
2026-04-22 04:21 36.90793 120.43404 32151 ft 446 kts 197°
2026-04-22 04:22 36.84667 120.42503 32152 ft 446 kts 197°
2026-04-22 04:22 36.78502 120.41598 32153 ft 446 kts 197°
2026-04-22 04:23 36.72325 120.40692 32163 ft 447 kts 197°
2026-04-22 04:23 36.66136 120.39787 32158 ft 448 kts 197°
2026-04-22 04:24 36.59931 120.38881 32156 ft 449 kts 197°
2026-04-22 04:24 36.53711 120.37975 32149 ft 451 kts 196°
2026-04-22 04:25 36.47375 120.37596 32145 ft 459 kts 191°
2026-04-22 04:25 36.40979 120.37440 32147 ft 459 kts 191°
2026-04-22 04:26 36.34599 120.37219 32148 ft 458 kts 192°
2026-04-22 04:26 36.31388 120.37317 32146 ft 469 kts 183°
2026-04-22 04:26 36.28138 120.38053 32148 ft 481 kts 175°
2026-04-22 04:26 36.24934 120.39376 32146 ft 493 kts 165°
2026-04-22 04:27 36.21846 120.41324 32164 ft 500 kts 160°
2026-04-22 04:27 36.15758 120.45478 32149 ft 497 kts 162°
2026-04-22 04:27 36.12621 120.47122 32155 ft 484 kts 172°
2026-04-22 04:28 36.09402 120.48157 32156 ft 473 kts 179°
2026-04-22 04:28 36.06183 120.48593 32152 ft 459 kts 188°
2026-04-22 04:28 36.02996 120.48704 32152 ft 458 kts 188°
2026-04-22 04:29 35.96605 120.49295 32145 ft 469 kts 178°
2026-04-22 04:29 35.93414 120.50347 32147 ft 481 kts 169°
2026-04-22 04:29 35.90350 120.51956 32158 ft 487 kts 164°
2026-04-22 04:30 35.84200 120.55499 32143 ft 488 kts 164°
2026-04-22 04:30 35.78028 120.58958 32142 ft 487 kts 165°
2026-04-22 04:31 35.71852 120.62412 32137 ft 491 kts 162°
2026-04-22 04:31 35.65815 120.66434 32149 ft 495 kts 159°
2026-04-22 04:32 35.59810 120.70577 32143 ft 495 kts 159°
2026-04-22 04:32 35.53774 120.74644 32135 ft 495 kts 160°
2026-04-22 04:33 35.47713 120.78649 32131 ft 492 kts 163°
2026-04-22 04:33 35.41459 120.81877 32135 ft 486 kts 167°
2026-04-22 04:34 35.35159 120.84883 32131 ft 486 kts 167°
2026-04-22 04:34 35.28876 120.87957 32131 ft 487 kts 166°
2026-04-22 04:35 35.22600 120.91078 32124 ft 487 kts 166°
2026-04-22 04:35 35.16326 120.94191 32117 ft 486 kts 166°
2026-04-22 04:36 35.10098 120.97278 32142 ft 486 kts 166°
2026-04-22 04:36 35.03832 121.00390 32116 ft 486 kts 166°
2026-04-22 04:37 34.97572 121.03496 32104 ft 485 kts 166°
2026-04-22 04:37 34.91320 121.06592 32105 ft 484 kts 166°
2026-04-22 04:38 34.85079 121.09676 32102 ft 484 kts 166°
2026-04-22 04:38 34.78841 121.12753 32096 ft 483 kts 166°
2026-04-22 04:39 34.72599 121.15827 32095 ft 483 kts 166°
2026-04-22 04:39 34.66366 121.18892 32093 ft 483 kts 166°
2026-04-22 04:40 34.60128 121.21954 32088 ft 483 kts 166°
2026-04-22 04:40 34.53886 121.25013 32089 ft 484 kts 166°
2026-04-22 04:41 34.47643 121.28068 32076 ft 484 kts 166°
2026-04-22 04:41 34.41402 121.31118 32068 ft 484 kts 166°
2026-04-22 04:42 34.35201 121.34143 32076 ft 484 kts 166°
2026-04-22 04:42 34.28955 121.37185 32063 ft 483 kts 166°
2026-04-22 04:43 34.22717 121.40218 32064 ft 483 kts 166°
2026-04-22 04:43 34.16488 121.43242 32061 ft 482 kts 166°
2026-04-22 04:44 34.10263 121.46260 32058 ft 481 kts 166°
2026-04-22 04:44 34.04046 121.49269 32053 ft 481 kts 166°
2026-04-22 04:45 33.97844 121.52265 32052 ft 480 kts 166°
2026-04-22 04:45 33.91643 121.55256 32051 ft 480 kts 166°
2026-04-22 04:46 33.85490 121.58220 32053 ft 479 kts 166°
2026-04-22 04:46 33.79291 121.61201 32035 ft 480 kts 166°
2026-04-22 04:47 33.73084 121.64183 32034 ft 480 kts 166°
2026-04-22 04:47 33.66887 121.67175 32029 ft 479 kts 166°
2026-04-22 04:48 33.60705 121.70182 32040 ft 479 kts 166°
2026-04-22 04:48 33.54509 121.73185 32021 ft 481 kts 166°
2026-04-22 04:49 33.48306 121.76206 32029 ft 481 kts 165°
2026-04-22 04:49 33.42097 121.79239 32020 ft 482 kts 165°
2026-04-22 04:50 33.35921 121.82252 32014 ft 482 kts 165°
2026-04-22 04:50 33.29711 121.85275 32008 ft 482 kts 165°
2026-04-22 04:51 33.23509 121.88288 32013 ft 481 kts 165°
2026-04-22 04:51 33.17312 121.91294 32005 ft 481 kts 165°
2026-04-22 04:52 33.11108 121.94297 32002 ft 480 kts 165°
2026-04-22 04:52 33.04918 121.97290 32005 ft 480 kts 165°
2026-04-22 04:53 32.98721 122.00282 31993 ft 480 kts 165°
2026-04-22 04:53 32.92533 122.03265 31987 ft 480 kts 165°
2026-04-22 04:54 32.86347 122.06242 31984 ft 479 kts 165°
2026-04-22 04:54 32.80167 122.09212 31979 ft 479 kts 165°
2026-04-22 04:55 32.73977 122.12182 31970 ft 480 kts 165°
2026-04-22 04:55 32.67779 122.15151 31968 ft 480 kts 165°
2026-04-22 04:56 32.61590 122.18113 31969 ft 480 kts 165°
2026-04-22 04:56 32.55435 122.21054 31967 ft 479 kts 165°
2026-04-22 04:57 32.49250 122.24004 31959 ft 479 kts 165°
2026-04-22 04:57 32.43063 122.26951 31957 ft 479 kts 165°
2026-04-22 04:58 32.36879 122.29892 31952 ft 479 kts 165°
2026-04-22 04:58 32.31692 122.32355 31956 ft 479 kts 166°
2026-04-22 04:59 32.25512 122.35286 31942 ft 479 kts 166°
2026-04-22 04:59 32.19353 122.38202 32017 ft 482 kts 166°
2026-04-22 04:59 32.16202 122.39692 32267 ft 481 kts 166°
2026-04-22 05:00 32.13099 122.41161 32582 ft 479 kts 166°
2026-04-22 05:00 32.10051 122.42603 32909 ft 477 kts 166°
2026-04-22 05:00 32.06976 122.44056 33188 ft 476 kts 166°
2026-04-22 05:00 32.03903 122.45505 33410 ft 476 kts 166°
2026-04-22 05:01 32.00830 122.46953 33621 ft 476 kts 166°
2026-04-22 05:01 31.97761 122.48398 33886 ft 474 kts 166°
2026-04-22 05:01 31.94707 122.49835 33913 ft 476 kts 166°
2026-04-22 05:02 31.88560 122.52726 33913 ft 472 kts 166°
2026-04-22 05:02 31.82474 122.55585 33931 ft 469 kts 166°
2026-04-22 05:03 31.76421 122.58424 33914 ft 466 kts 166°
2026-04-22 05:03 31.70392 122.61142 33895 ft 456 kts 175°
2026-04-22 05:03 31.67324 122.61501 33924 ft 434 kts 192°
2026-04-22 05:04 31.64397 122.60900 33920 ft 423 kts 204°
2026-04-22 05:04 31.61739 122.59602 33904 ft 416 kts 216°
2026-04-22 05:04 31.59367 122.57682 33920 ft 415 kts 221°
2026-04-22 05:05 31.54768 122.53532 33909 ft 419 kts 221°
2026-04-22 05:05 31.50099 122.49424 33904 ft 420 kts 221°
2026-04-22 05:06 31.44921 122.46128 33910 ft 431 kts 206°
2026-04-22 05:06 31.39011 122.44536 33899 ft 445 kts 191°
2026-04-22 05:07 31.32814 122.44259 33897 ft 445 kts 189°
2026-04-22 05:07 31.26640 122.43934 33896 ft 443 kts 189°
2026-04-22 05:08 31.20486 122.43576 33892 ft 442 kts 189°
2026-04-22 05:08 31.14351 122.43221 33888 ft 441 kts 189°
2026-04-22 05:09 31.08217 122.42869 33892 ft 441 kts 189°
2026-04-22 05:09 31.02087 122.42519 33890 ft 441 kts 188°
2026-04-22 05:10 30.95945 122.42171 33892 ft 442 kts 188°
2026-04-22 05:10 30.89795 122.41827 33892 ft 443 kts 188°
2026-04-22 05:11 30.83628 122.41482 33894 ft 445 kts 188°
2026-04-22 05:11 30.77430 122.41136 33899 ft 447 kts 188°
2026-04-22 05:12 30.71198 122.40789 33901 ft 449 kts 188°
2026-04-22 05:12 30.64939 122.40441 33902 ft 452 kts 188°
2026-04-22 05:13 30.58682 122.40093 33894 ft 454 kts 188°
2026-04-22 05:13 30.52360 122.39752 33890 ft 455 kts 188°
2026-04-22 05:14 30.46014 122.39416 33889 ft 456 kts 188°
2026-04-22 05:14 30.39667 122.39080 33889 ft 457 kts 188°
2026-04-22 05:15 30.33305 122.38741 33889 ft 457 kts 188°
2026-04-22 05:15 30.26945 122.38403 33889 ft 458 kts 188°
2026-04-22 05:16 30.20573 122.38038 33886 ft 458 kts 189°
2026-04-22 05:16 30.14206 122.37627 33891 ft 458 kts 189°
2026-04-22 05:17 30.07891 122.37223 33889 ft 458 kts 189°
2026-04-22 05:17 30.01528 122.36822 33886 ft 458 kts 189°
2026-04-22 05:18 29.91948 122.36543 33879 ft 466 kts 179°
2026-04-22 05:18 29.85526 122.37961 33884 ft 471 kts 174°
2026-04-22 05:19 29.79103 122.39549 33880 ft 472 kts 174°
2026-04-22 05:19 29.72681 122.41089 33887 ft 471 kts 174°
2026-04-22 05:20 29.66290 122.42582 33889 ft 471 kts 174°
2026-04-22 05:20 29.59864 122.44073 33888 ft 471 kts 174°
2026-04-22 05:21 29.53435 122.45564 33893 ft 471 kts 174°
2026-04-22 05:21 29.47016 122.47052 33891 ft 471 kts 174°
2026-04-22 05:22 29.40595 122.48540 33896 ft 471 kts 174°
2026-04-22 05:22 29.34174 122.50026 33901 ft 471 kts 174°
2026-04-22 05:23 29.27752 122.51511 33896 ft 471 kts 174°
2026-04-22 05:23 29.21323 122.52422 33893 ft 459 kts 190°
2026-04-22 05:24 29.15268 122.50670 33892 ft 443 kts 211°
2026-04-22 05:24 29.09808 122.47401 33905 ft 443 kts 213°
2026-04-22 05:25 29.04347 122.44103 33899 ft 445 kts 212°
2026-04-22 05:25 28.98886 122.40856 33902 ft 446 kts 212°
2026-04-22 05:26 28.93363 122.37604 33897 ft 447 kts 212°
2026-04-22 05:26 28.87827 122.34356 33896 ft 447 kts 212°
2026-04-22 05:27 28.82302 122.31118 33898 ft 447 kts 212°
2026-04-22 05:27 28.76775 122.27882 33896 ft 447 kts 212°
2026-04-22 05:28 28.71235 122.24640 33897 ft 447 kts 212°
2026-04-22 05:28 28.65699 122.21405 33901 ft 448 kts 212°
2026-04-22 05:29 28.60154 122.18168 33902 ft 448 kts 212°
2026-04-22 05:29 28.54597 122.14929 33897 ft 449 kts 212°
2026-04-22 05:30 28.49037 122.11691 33905 ft 450 kts 212°
2026-04-22 05:30 28.43459 122.08447 33897 ft 451 kts 212°
2026-04-22 05:31 28.37865 122.05197 33898 ft 452 kts 212°
2026-04-22 05:31 28.32260 122.01946 33903 ft 453 kts 212°
2026-04-22 05:32 28.26644 121.98691 33899 ft 453 kts 211°
2026-04-22 05:32 28.21025 121.95438 33898 ft 454 kts 211°
2026-04-22 05:33 28.15390 121.92180 33911 ft 455 kts 211°
2026-04-22 05:33 28.09745 121.88920 33902 ft 455 kts 211°
2026-04-22 05:34 28.04115 121.85642 33899 ft 454 kts 215°
2026-04-22 05:34 28.01698 121.83431 33913 ft 444 kts 231°
2026-04-22 05:34 27.99875 121.80633 33902 ft 439 kts 243°
2026-04-22 05:35 27.98700 121.77478 33912 ft 435 kts 256°
2026-04-22 05:35 27.97991 121.74194 33912 ft 435 kts 258°
2026-04-22 05:35 27.96707 121.67506 33902 ft 436 kts 259°
2026-04-22 05:36 27.95399 121.60809 33904 ft 436 kts 258°
2026-04-22 05:36 27.94043 121.54125 33905 ft 435 kts 258°
2026-04-22 05:37 27.92672 121.47464 33904 ft 435 kts 258°
2026-04-22 05:37 27.91298 121.40804 33908 ft 434 kts 258°
2026-04-22 05:38 27.89927 121.34167 33901 ft 433 kts 258°
2026-04-22 05:38 27.88555 121.27542 33902 ft 433 kts 258°
2026-04-22 05:39 27.87181 121.20925 33899 ft 432 kts 258°
2026-04-22 05:39 27.85806 121.14333 33898 ft 431 kts 258°
2026-04-22 05:40 27.84441 121.07794 33899 ft 430 kts 258°
2026-04-22 05:40 27.83059 121.01191 33897 ft 428 kts 258°
2026-04-22 05:41 27.81686 120.94649 33898 ft 427 kts 258°
2026-04-22 05:41 27.80316 120.88131 33900 ft 426 kts 258°
2026-04-22 05:42 27.78951 120.81658 33897 ft 425 kts 258°
2026-04-22 05:42 27.77582 120.75174 33901 ft 424 kts 258°
2026-04-22 05:43 27.76205 120.68699 33891 ft 423 kts 256°
2026-04-22 05:43 27.75109 120.65613 33885 ft 427 kts 243°
2026-04-22 05:43 27.73435 120.62833 33895 ft 431 kts 234°
2026-04-22 05:44 27.69710 120.59033 33892 ft 442 kts 218°
2026-04-22 05:44 27.64484 120.55360 33903 ft 443 kts 217°
2026-04-22 05:45 27.58348 120.51081 33891 ft 444 kts 217°
2026-04-22 05:45 27.54001 120.47994 33892 ft 444 kts 217°
2026-04-22 05:46 27.48773 120.44261 33898 ft 446 kts 217°
2026-04-22 05:46 27.43522 120.40515 33906 ft 448 kts 217°
2026-04-22 05:47 27.38237 120.36752 33900 ft 450 kts 217°
2026-04-22 05:47 27.32925 120.32994 33907 ft 452 kts 217°
2026-04-22 05:48 27.27569 120.29234 33907 ft 455 kts 217°
2026-04-22 05:48 27.22192 120.25461 33905 ft 456 kts 217°
2026-04-22 05:49 27.16802 120.21677 33902 ft 457 kts 217°
2026-04-22 05:49 27.11443 120.17916 33893 ft 457 kts 217°
2026-04-22 05:50 27.06078 120.14094 33909 ft 457 kts 217°
2026-04-22 05:50 27.00718 120.10261 33898 ft 457 kts 217°
2026-04-22 05:51 26.95355 120.06440 33899 ft 456 kts 217°
2026-04-22 05:51 26.89985 120.02620 33904 ft 457 kts 217°
2026-04-22 05:52 26.84616 119.98809 33912 ft 457 kts 217°
2026-04-22 05:52 26.79241 119.95020 33909 ft 456 kts 217°
2026-04-22 05:53 26.73864 119.91237 33905 ft 456 kts 217°
2026-04-22 05:53 26.68499 119.87463 33904 ft 455 kts 218°
2026-04-22 05:54 26.63145 119.83698 33902 ft 455 kts 218°
2026-04-22 05:54 26.57785 119.79934 33897 ft 455 kts 218°
2026-04-22 05:55 26.52427 119.76174 33904 ft 455 kts 218°
2026-04-22 05:55 26.47066 119.72418 33907 ft 456 kts 218°
2026-04-22 05:56 26.41691 119.68640 33894 ft 456 kts 218°
2026-04-22 05:56 26.36357 119.64884 33902 ft 457 kts 218°
2026-04-22 05:57 26.30971 119.61097 33910 ft 458 kts 218°
2026-04-22 05:57 26.25557 119.57296 33895 ft 460 kts 217°
2026-04-22 05:58 26.19871 119.53956 33890 ft 469 kts 204°
2026-04-22 05:58 26.13603 119.51832 33891 ft 471 kts 202°
2026-04-22 05:59 26.07319 119.49782 33895 ft 470 kts 202°
2026-04-22 05:59 26.01059 119.47681 33893 ft 470 kts 202°
2026-04-22 06:00 25.94815 119.45558 33888 ft 469 kts 202°
2026-04-22 06:00 25.88589 119.43442 33896 ft 467 kts 202°
2026-04-22 06:01 25.82371 119.41334 33893 ft 466 kts 202°
2026-04-22 06:01 25.76277 119.38988 33901 ft 457 kts 212°
2026-04-22 06:02 25.71083 119.35128 33908 ft 445 kts 227°
2026-04-22 06:02 25.66827 119.30186 33909 ft 443 kts 232°
2026-04-22 06:03 25.62642 119.25170 33912 ft 443 kts 231°
2026-04-22 06:03 25.58425 119.20177 33922 ft 444 kts 231°
2026-04-22 06:04 25.54218 119.15233 33922 ft 444 kts 231°
2026-04-22 06:04 25.49968 119.10250 33917 ft 445 kts 231°
2026-04-22 06:05 25.45711 119.05263 33917 ft 446 kts 231°
2026-04-22 06:05 25.41454 119.00281 33921 ft 446 kts 231°
2026-04-22 06:06 25.37187 118.95290 33922 ft 446 kts 231°
2026-04-22 06:06 25.32921 118.90293 33922 ft 446 kts 231°
2026-04-22 06:07 25.28731 118.85240 33914 ft 446 kts 232°
2026-04-22 06:07 25.24563 118.80183 33915 ft 445 kts 232°
2026-04-22 06:08 25.20387 118.75138 33916 ft 445 kts 232°
2026-04-22 06:08 25.16204 118.70101 33921 ft 445 kts 232°
2026-04-22 06:09 25.12024 118.65075 33912 ft 445 kts 232°
2026-04-22 06:09 25.07819 118.60053 33921 ft 446 kts 231°
2026-04-22 06:10 25.03542 118.55148 33919 ft 448 kts 230°
2026-04-22 06:10 24.99191 118.50201 33923 ft 448 kts 230°
2026-04-22 06:11 24.94849 118.45246 33918 ft 449 kts 230°
2026-04-22 06:11 24.90520 118.40299 33915 ft 449 kts 230°
2026-04-22 06:12 24.86181 118.35342 33924 ft 449 kts 230°
2026-04-22 06:12 24.81837 118.30384 33917 ft 450 kts 230°
2026-04-22 06:13 24.77492 118.25431 33908 ft 450 kts 230°
2026-04-22 06:13 24.73144 118.20479 33915 ft 449 kts 230°
2026-04-22 06:14 24.68800 118.15537 33906 ft 449 kts 230°
2026-04-22 06:14 24.64469 118.10594 33903 ft 448 kts 231°
2026-04-22 06:15 24.60152 118.05664 33896 ft 448 kts 231°
2026-04-22 06:15 24.55829 118.00730 33901 ft 447 kts 231°
2026-04-22 06:16 24.51635 117.95705 33907 ft 446 kts 233°
2026-04-22 06:16 24.47515 117.90677 33912 ft 446 kts 232°
2026-04-22 06:17 24.43348 117.85620 33905 ft 447 kts 232°
2026-04-22 06:17 24.39168 117.80575 33914 ft 447 kts 232°
2026-04-22 06:18 24.34959 117.75507 33910 ft 448 kts 233°
2026-04-22 06:18 24.30788 117.70490 33917 ft 448 kts 233°
2026-04-22 06:19 24.26585 117.65438 33908 ft 449 kts 232°
2026-04-22 06:19 24.22349 117.60352 33915 ft 449 kts 232°
2026-04-22 06:20 24.18158 117.55323 33917 ft 450 kts 232°
2026-04-22 06:20 24.13923 117.50261 33925 ft 451 kts 231°
2026-04-22 06:21 24.09295 117.45567 33916 ft 455 kts 227°
2026-04-22 06:21 24.04541 117.40977 33922 ft 456 kts 227°
2026-04-22 06:22 23.99797 117.36367 33924 ft 456 kts 227°
2026-04-22 06:22 23.95063 117.31738 33933 ft 457 kts 227°
2026-04-22 06:23 23.90382 117.27156 33946 ft 458 kts 227°
2026-04-22 06:23 23.85575 117.22458 33941 ft 459 kts 227°
2026-04-22 06:24 23.78427 117.15480 33937 ft 460 kts 226°
2026-04-22 06:25 23.73806 117.10674 33941 ft 457 kts 230°
2026-04-22 06:25 23.69434 117.05646 33920 ft 457 kts 231°
2026-04-22 06:26 23.65092 117.00637 33934 ft 457 kts 231°
2026-04-22 06:26 23.60694 116.95621 33929 ft 457 kts 231°
2026-04-22 06:27 23.56286 116.90620 33926 ft 458 kts 230°
2026-04-22 06:27 23.51872 116.85616 33927 ft 458 kts 230°
2026-04-22 06:28 23.47456 116.80613 33931 ft 458 kts 230°
2026-04-22 06:28 23.42939 116.75718 33918 ft 462 kts 224°
2026-04-22 06:29 23.37832 116.71453 33921 ft 464 kts 221°
2026-04-22 06:29 23.32664 116.67247 33935 ft 464 kts 221°
2026-04-22 06:30 23.27523 116.63014 33925 ft 463 kts 222°
2026-04-22 06:30 23.23267 116.59487 33935 ft 463 kts 222°
2026-04-22 06:31 23.18140 116.55233 33938 ft 463 kts 222°
2026-04-22 06:31 23.13014 116.50986 33937 ft 463 kts 222°
2026-04-22 06:32 23.07887 116.46745 33940 ft 463 kts 222°
2026-04-22 06:32 23.02754 116.42502 33945 ft 464 kts 222°
2026-04-22 06:33 22.97726 116.38134 33928 ft 459 kts 232°
2026-04-22 06:33 22.95887 116.35365 33951 ft 450 kts 245°
2026-04-22 06:33 22.94663 116.32261 33941 ft 445 kts 257°
2026-04-22 06:34 22.93802 116.25678 33945 ft 441 kts 267°
2026-04-22 06:34 22.93220 116.19043 33944 ft 442 kts 266°
2026-04-22 06:35 22.92564 116.12397 33945 ft 444 kts 266°
2026-04-22 06:35 22.91870 116.05742 33946 ft 444 kts 266°
2026-04-22 06:36 22.91181 115.99067 33943 ft 445 kts 266°
2026-04-22 06:36 22.90520 115.92398 33948 ft 445 kts 266°
2026-04-22 06:37 22.89851 115.85716 33946 ft 445 kts 266°
2026-04-22 06:37 22.89182 115.79049 33950 ft 445 kts 266°
2026-04-22 06:38 22.88512 115.72378 33945 ft 445 kts 266°
2026-04-22 06:38 22.87843 115.65747 33941 ft 445 kts 266°
2026-04-22 06:39 22.87162 115.59031 33949 ft 445 kts 266°
2026-04-22 06:39 22.86484 115.52373 33954 ft 444 kts 266°
2026-04-22 06:40 22.85807 115.45757 33952 ft 444 kts 266°
2026-04-22 06:40 22.85124 115.39104 33950 ft 444 kts 266°
2026-04-22 06:41 22.84439 115.32457 33955 ft 444 kts 266°
2026-04-22 06:41 22.83751 115.25809 33952 ft 443 kts 266°
2026-04-22 06:42 22.83061 115.19173 33954 ft 443 kts 266°
2026-04-22 06:42 22.82370 115.12545 33963 ft 442 kts 266°
2026-04-22 06:43 22.81676 115.05925 33956 ft 442 kts 266°
2026-04-22 06:43 22.80980 114.99307 33949 ft 442 kts 266°
2026-04-22 06:44 22.80281 114.92692 33951 ft 441 kts 266°
2026-04-22 06:44 22.79581 114.86092 33954 ft 441 kts 266°
2026-04-22 06:45 22.78879 114.79491 33945 ft 441 kts 266°
2026-04-22 06:45 22.78177 114.72902 33951 ft 440 kts 266°
2026-04-22 06:46 22.77484 114.66317 33950 ft 440 kts 266°
2026-04-22 06:46 22.76792 114.59739 33944 ft 440 kts 266°
2026-04-22 06:47 22.76096 114.53161 33944 ft 439 kts 266°
2026-04-22 06:47 22.75421 114.46588 33943 ft 439 kts 266°
2026-04-22 06:48 22.74758 114.40022 33946 ft 439 kts 266°
2026-04-22 06:48 22.74090 114.33445 33945 ft 438 kts 266°
2026-04-22 06:49 22.73423 114.26931 33945 ft 438 kts 266°
2026-04-22 06:49 22.72748 114.20369 33947 ft 438 kts 266°
2026-04-22 06:50 22.72072 114.13819 33947 ft 438 kts 266°
2026-04-22 06:50 22.71262 114.07280 33932 ft 441 kts 258°
2026-04-22 06:51 22.68785 114.01173 33932 ft 449 kts 242°
2026-04-22 06:51 22.64724 113.95945 33930 ft 456 kts 231°
2026-04-22 06:52 22.60347 113.90966 33930 ft 456 kts 231°
2026-04-22 06:52 22.55992 113.85969 33930 ft 456 kts 232°
2026-04-22 06:53 22.51665 113.80941 33932 ft 456 kts 232°
2026-04-22 06:53 22.47349 113.75909 33934 ft 456 kts 232°
2026-04-22 06:54 22.43027 113.70876 33934 ft 456 kts 232°
2026-04-22 06:54 22.38708 113.65853 33933 ft 456 kts 232°
2026-04-22 06:55 22.34380 113.60826 33935 ft 457 kts 232°
2026-04-22 06:55 22.30055 113.55806 33931 ft 457 kts 232°
2026-04-22 06:56 22.25717 113.50775 33928 ft 457 kts 232°
2026-04-22 06:56 22.21850 113.45418 33936 ft 449 kts 244°
2026-04-22 06:57 22.19355 113.39311 33928 ft 444 kts 252°
2026-04-22 06:57 22.17113 113.33094 33929 ft 444 kts 252°
2026-04-22 06:58 22.14815 113.26905 33932 ft 445 kts 252°
2026-04-22 06:58 22.12437 113.20742 33936 ft 446 kts 250°
2026-04-22 06:59 22.09884 113.14646 33941 ft 446 kts 249°
2026-04-22 06:59 22.07334 113.08546 33923 ft 446 kts 250°
2026-04-22 07:00 22.04810 113.02444 33926 ft 446 kts 250°
2026-04-22 07:00 22.02323 112.96314 33929 ft 446 kts 251°
2026-04-22 07:01 21.99958 112.90197 33920 ft 445 kts 251°
2026-04-22 07:01 21.97562 112.84043 33918 ft 446 kts 251°
2026-04-22 07:02 21.95130 112.77899 33929 ft 446 kts 250°
2026-04-22 07:02 21.92654 112.71749 33921 ft 446 kts 250°
2026-04-22 07:03 21.90190 112.65624 33934 ft 446 kts 250°
2026-04-22 07:03 21.87764 112.59586 33931 ft 445 kts 250°
2026-04-22 07:04 21.85283 112.53415 33939 ft 445 kts 250°
2026-04-22 07:04 21.82839 112.47277 33922 ft 446 kts 250°
2026-04-22 07:05 21.80401 112.41141 33929 ft 446 kts 250°
2026-04-22 07:05 21.77959 112.35004 33932 ft 446 kts 250°
2026-04-22 07:06 21.75509 112.28861 33927 ft 446 kts 250°
2026-04-22 07:06 21.73059 112.22727 33924 ft 447 kts 250°
2026-04-22 07:07 21.70608 112.16598 33922 ft 447 kts 250°
2026-04-22 07:07 21.68149 112.10457 33925 ft 447 kts 250°
2026-04-22 07:08 21.65705 112.04361 33920 ft 447 kts 250°
2026-04-22 07:08 21.63244 111.98228 33925 ft 447 kts 250°
2026-04-22 07:09 21.60778 111.92089 33918 ft 447 kts 250°
2026-04-22 07:09 21.58309 111.85955 33918 ft 447 kts 250°
2026-04-22 07:10 21.55131 111.80171 33914 ft 455 kts 234°
2026-04-22 07:10 21.51001 111.75007 33918 ft 456 kts 233°
2026-04-22 07:11 21.46841 111.69866 33915 ft 456 kts 233°
2026-04-22 07:11 21.42704 111.64700 33918 ft 456 kts 233°
2026-04-22 07:12 21.38582 111.59520 33913 ft 456 kts 233°
2026-04-22 07:12 21.34457 111.54335 33912 ft 457 kts 233°
2026-04-22 07:13 21.30332 111.49155 33909 ft 457 kts 233°
2026-04-22 07:13 21.26897 111.44847 33911 ft 457 kts 233°
2026-04-22 07:14 21.22763 111.39668 33911 ft 457 kts 233°
2026-04-22 07:14 21.18625 111.34488 33904 ft 458 kts 233°
2026-04-22 07:15 21.14482 111.29307 33905 ft 458 kts 233°
2026-04-22 07:15 21.10338 111.24129 33901 ft 458 kts 233°
2026-04-22 07:16 21.06189 111.18950 33898 ft 458 kts 233°
2026-04-22 07:16 21.02040 111.13774 33901 ft 458 kts 233°
2026-04-22 07:17 20.97875 111.08609 33893 ft 459 kts 230°
2026-04-22 07:17 20.92851 111.04303 33896 ft 469 kts 214°
2026-04-22 07:18 20.86938 111.01355 33891 ft 474 kts 207°
2026-04-22 07:18 20.83887 110.99963 33358 ft 481 kts 207°
2026-04-22 07:18 20.80822 110.98556 32668 ft 478 kts 207°
2026-04-22 07:18 20.77770 110.97135 31900 ft 478 kts 207°
2026-04-22 07:19 20.74723 110.95699 31124 ft 479 kts 207°
2026-04-22 07:19 20.71668 110.94248 30284 ft 481 kts 207°
2026-04-22 07:19 20.68605 110.92793 29345 ft 483 kts 207°
2026-04-22 07:19 20.65525 110.91332 28353 ft 485 kts 207°
2026-04-22 07:20 20.62460 110.89884 27918 ft 474 kts 207°
2026-04-22 07:20 20.59471 110.88476 27593 ft 462 kts 207°
2026-04-22 07:20 20.56574 110.87109 27386 ft 448 kts 207°
2026-04-22 07:20 20.53755 110.85779 27190 ft 435 kts 207°
2026-04-22 07:21 20.51055 110.84514 27003 ft 424 kts 205°
2026-04-22 07:21 20.48224 110.83710 26626 ft 424 kts 188°
2026-04-22 07:21 20.45252 110.83479 26203 ft 421 kts 186°
2026-04-22 07:21 20.42369 110.83308 25738 ft 419 kts 186°
2026-04-22 07:22 20.39465 110.83133 25270 ft 417 kts 186°
2026-04-22 07:22 20.36581 110.82941 24800 ft 415 kts 186°
2026-04-22 07:22 20.33708 110.82733 24361 ft 413 kts 187°
2026-04-22 07:22 20.30854 110.82515 23898 ft 411 kts 187°
2026-04-22 07:23 20.28010 110.82294 23445 ft 409 kts 187°
2026-04-22 07:23 20.25170 110.82071 22923 ft 407 kts 186°
2026-04-22 07:23 20.22352 110.81852 22446 ft 404 kts 186°
2026-04-22 07:23 20.20275 110.81690 22114 ft 402 kts 186°
2026-04-22 07:24 20.17618 110.81484 21675 ft 398 kts 186°
2026-04-22 07:24 20.14858 110.81270 21186 ft 396 kts 186°
2026-04-22 07:24 20.12122 110.81058 20747 ft 393 kts 186°
2026-04-22 07:24 20.09401 110.80847 20307 ft 390 kts 186°
2026-04-22 07:25 20.06704 110.80637 19873 ft 387 kts 186°
2026-04-22 07:25 20.04024 110.80429 19425 ft 385 kts 186°
2026-04-22 07:25 20.01359 110.80209 18980 ft 383 kts 187°
2026-04-22 07:25 19.98748 110.79987 18546 ft 381 kts 187°
2026-04-22 07:26 19.96081 110.79759 18109 ft 379 kts 187°
2026-04-22 07:26 19.93492 110.79538 17638 ft 377 kts 187°
2026-04-22 07:26 19.90890 110.79317 17188 ft 373 kts 187°
2026-04-22 07:26 19.88310 110.79099 16762 ft 370 kts 187°
2026-04-22 07:27 19.85773 110.78885 16333 ft 361 kts 187°
2026-04-22 07:27 19.83302 110.78700 15923 ft 353 kts 186°
2026-04-22 07:27 19.80869 110.78430 15513 ft 348 kts 197°
2026-04-22 07:27 19.78722 110.77360 15142 ft 339 kts 219°
2026-04-22 07:28 19.76171 110.73345 14396 ft 329 kts 255°
2026-04-22 07:28 19.75889 110.70945 14020 ft 327 kts 268°
2026-04-22 07:28 19.75882 110.68531 13613 ft 327 kts 270°
2026-04-22 07:29 19.75917 110.66122 13181 ft 325 kts 270°
2026-04-22 07:29 19.75945 110.63728 12771 ft 324 kts 270°
2026-04-22 07:29 19.75955 110.61344 12375 ft 322 kts 269°
2026-04-22 07:29 19.75956 110.58975 11986 ft 320 kts 269°
2026-04-22 07:30 19.75952 110.56623 11603 ft 318 kts 269°
2026-04-22 07:30 19.75947 110.54286 11218 ft 316 kts 269°
2026-04-22 07:30 19.75942 110.51967 10943 ft 311 kts 269°
2026-04-22 07:30 19.75937 110.49694 10653 ft 306 kts 269°
2026-04-22 07:31 19.75930 110.47447 10446 ft 300 kts 269°
2026-04-22 07:31 19.75926 110.45271 10314 ft 291 kts 269°
2026-04-22 07:31 19.75921 110.43150 10189 ft 283 kts 269°
2026-04-22 07:31 19.75917 110.41094 10066 ft 275 kts 268°
2026-04-22 07:32 19.75914 110.39080 9864 ft 272 kts 269°
2026-04-22 07:32 19.75908 110.37075 9606 ft 271 kts 268°
2026-04-22 07:32 19.75900 110.35101 9307 ft 271 kts 269°
2026-04-22 07:32 19.75894 110.33104 8991 ft 271 kts 268°
2026-04-22 07:33 19.75886 110.31110 8713 ft 269 kts 268°
2026-04-22 07:33 19.75879 110.29125 8415 ft 268 kts 269°
2026-04-22 07:33 19.75873 110.27144 8132 ft 268 kts 268°
2026-04-22 07:33 19.75865 110.25156 7832 ft 269 kts 268°
2026-04-22 07:34 19.76025 110.23176 7539 ft 272 kts 285°
2026-04-22 07:34 19.76928 110.21398 7236 ft 277 kts 309°
2026-04-22 07:34 19.78331 110.19990 6955 ft 278 kts 317°
2026-04-22 07:34 19.79796 110.18641 6643 ft 278 kts 316°
2026-04-22 07:35 19.81225 110.17305 6332 ft 270 kts 316°
2026-04-22 07:35 19.82618 110.15996 6056 ft 265 kts 316°
2026-04-22 07:35 19.83994 110.14707 5751 ft 263 kts 320°
2026-04-22 07:35 19.85651 110.13906 5476 ft 264 kts 348°
2026-04-22 07:36 19.87445 110.13799 5313 ft 259 kts 358°
2026-04-22 07:36 19.89221 110.13808 5152 ft 251 kts 359°
2026-04-22 07:36 19.90932 110.13815 5055 ft 241 kts 358°
2026-04-22 07:36 19.92584 110.13844 4960 ft 237 kts
2026-04-22 07:37 19.94088 110.14532 4873 ft 236 kts 40°
2026-04-22 07:37 19.95021 110.15875 4782 ft 221 kts 70°
2026-04-22 07:37 19.95310 110.17438 4577 ft 213 kts 89°
2026-04-22 07:37 19.95331 110.18987 4362 ft 207 kts 92°
2026-04-22 07:38 19.95328 110.20509 4141 ft 205 kts 92°
2026-04-22 07:38 19.95316 110.22017 3938 ft 204 kts 92°
2026-04-22 07:38 19.95311 110.23515 3739 ft 199 kts 92°
2026-04-22 07:38 19.95318 110.24968 3486 ft 197 kts 91°
2026-04-22 07:39 19.95319 110.26413 3247 ft 194 kts 92°
2026-04-22 07:39 19.95327 110.27845 3023 ft 195 kts 91°
2026-04-22 07:39 19.95314 110.29295 2778 ft 196 kts 91°
2026-04-22 07:39 19.95341 110.30766 2469 ft 200 kts 91°
2026-04-22 07:40 19.95349 110.32214 2231 ft 192 kts 92°
2026-04-22 07:40 19.95347 110.33588 1993 ft 180 kts 92°
2026-04-22 07:40 19.95347 110.34880 1803 ft 171 kts 92°
2026-04-22 07:40 19.95348 110.36147 1587 ft 172 kts 92°
2026-04-22 07:41 19.95352 110.37442 1366 ft 177 kts 92°
2026-04-22 07:41 19.95354 110.38751 1155 ft 178 kts 91°
2026-04-22 07:41 19.95354 110.40077 909 ft 176 kts 91°
2026-04-22 07:41 19.95362 110.41321 686 ft 162 kts 92°
2026-04-22 07:42 19.95365 110.42448 491 ft 150 kts 91°
2026-04-22 07:42 19.95362 110.43544 333 ft 148 kts 91°
2026-04-22 07:42 19.95372 110.44651 124 ft 153 kts 91°
2026-04-22 07:42 19.95376 110.45735 68 ft 132 kts 89°
2026-04-22 07:43 19.95377 110.46550 65 ft 88 kts 90°
2026-04-22 07:43 19.95351 110.47006 63 ft 40 kts 116°
2026-04-22 07:43 19.95215 110.47134 56 ft 24 kts 208°
2026-04-22 07:43 19.95203 110.47005 60 ft 18 kts 274°
2026-04-22 07:44 19.95206 110.46873 60 ft 18 kts 270°
2026-04-22 07:44 19.95207 110.46715 59 ft 26 kts 271°
2026-04-22 07:44 19.95206 110.46493 59 ft 34 kts 269°
2026-04-22 07:44 19.95206 110.46229 60 ft 34 kts 269°
2026-04-22 07:45 19.95201 110.46005 60 ft 20 kts 265°
2026-04-22 07:45 19.95129 110.45966 55 ft 12 kts 178°
2026-04-22 07:45 19.95028 110.45950 54 ft 19 kts 217°
2026-04-22 07:45 19.94952 110.45891 58 ft 8 kts 178°
2026-04-22 07:46 19.94943 110.45894 51 ft 0 kts 160°
2026-04-22 07:46 19.94937 110.45897 54 ft 3 kts 154°
2026-04-22 07:46 19.94893 110.45914 56 ft 7 kts 162°
2026-04-22 07:47 19.94866 110.45923 56 ft 2 kts 164°
2026-04-22 07:47 19.94862 110.45924 56 ft 0 kts 164°